SCP
0 0 0 0 0 0 0 0 0 0 0 0 0 0 0 0 0 0 0 0 0 0 0 0 0 0 0 0 0 0 0 0 0 0 0 0 0 0 0 0 0 0 0
0 0 0 0 0 0 0 0 0 0 0 0 0 0 0 0 0 0 0 0 0 0 0 0 0 0 0 0 0 0 0 0 0 0 0 0 0 0 0 0 0 0 0
0 0 0 0 0 0 0 0 0 0 0 0 0 0 0 0 0 0 0 0 0 0 0 0 0 0 0 0 0 0 0 0 0 0 0 0 0 0 0 0 0 0 0
0 0 0 0 0 0 0 0 0 0 0 0 0 0 0 0 0 0 0 0 0 0 0 0 0 0 0 0 0 0 0 0 0 0 0 0 0 0 0 0 0 0 0
0 0 0 0 0 0 0 0 0 0 0 0 0 0 0 0 0 0 0 0 0 0 0 0 0 0 0 0 0 0 0 0 0 0 0 0 0 0 0 0 0 0 0
0 0 0 0 0 0 0 0 0 0 0 0 0 0 0 0 0 0 0 0 0 0 0 0 0 0 0 0 0 0 0 0 0 0 0 0 0 0 0 0 0 0 0
0 0 0 0 0 0 0 0 0 0 0 0 0 0 0 0 0 0 0 0 0 0 0 0 0 0 0 0 0 0 0 0 0 0 0 0 0 0 0 0 0 0 0
0 0 0 0 0 0 0 0 0 0 0 0 0 0 0 0 0 0 0 0 0 0 0 0 0 0 0 0 0 0 0 0 0 0 0 0 0 0 0 0 0 0 0
0 0 0 0 0 0 0 0 0 0 0 0 0 0 0 0 0 0 0 0 0 0 0 0 0 0 0 0 0 0 0 0 0 0 0 0 0 0 0 0 0 0 0
0 0 0 0 0 0 0 0 0 0 0 0 0 0 0 0 0 0 0 0 0 0 0 0 0 0 0 0 0 0 0 0 0 0 0 0 0 0 0 0 0 0 0
0 0 0 0 0 0 0 0 0 0 0 0 0 0 0 0 0 0 0 0 0 0 0 0 0 0 0 0 0 0 0 0 0 0 0 0 0 0 0 0 0 0 0
0 0 0 0 0 0 0 0 0 0 0 0 0 0 0 0 0 0 0 0 0 0 0 0 0 0 0 0 0 0 0 0 0 0 0 0 0 0 0 0 0 0 0
0 0 0 0 0 0 0 0 0 0 0 0 0 0 0 0 0 0 0 0 0 0 0 0 0 0 0 0 0 0 0 0 0 0 0 0 0 0 0 0 0 0 0
0 0 0 0 0 0 0 0 0 0 0 0 0 0 0 0 0 0 0 0 0 0 0 0 0 0 0 0 0 0 0 0 0 0 0 0 0 0 0 0 0 0 0
0 0 0 0 0 0 0 0 0 0 0 0 0 0 0 0 0 0 0 0 0 0 0 0 0 0 0 0 0 0 0 0 0 0 0 0 0 0 0 0 0 0 0
0 0 0 0 0 0 0 0 0 0 0 0 0 0 0 0 0 0 0 0 0 0 0 0 0 0 0 0 0 0 0 0 0 0 0 0 0 0 0 0 0 0 0
0 0 0 0 0 0 0 0 0 0 0 0 0 0 0 0 0 0 0 0 0 0 0 0 0 0 0 0 0 0 0 0 0 0 0 0 0 0 0 0 0 0 0
0 0 0 0 0 0 0 0 0 0 0 0 0 0 0 0 0 0 0 0 0 0 0 0 0 0 0 0 0 0 0 0 0 0 0 0 0 0 0 0 0 0 0
0 0 0 0 0 0 0 0 0 0 0 0 0 0 0 0 0 0 0 0 0 0 0 0 0 0 0 0 0 0 0 0 0 0 0 0 0 0 0 0 0 0 0
0 0 0 0 0 0 0 0 0 0 0 0 0 0 0 0 0 0 0 0 0 0 0 0 0 0 0 0 0 0 0 0 0 0 0 0 0 0 0 0 0 0 0
0 0 0 0 0 0 0 0 0 0 0 0 0 0 0 0 0 0 0 0 0 0 0 0 0 0 0 0 0 0 0 0 0 0 0 0 0 0 0 0 0 0 0
0 0 0 0 0 0 0 0 0 0 0 0 0 0 0 0 0 0 0 0 0 0 0 0 0 0 0 0 0 0 0 0 0 0 0 0 0 0 0 0 0 0 0
0 0 0 0 0 0 0 0 0 0 0 0 0 0 0 0 0 0 0 0 0 0 0 0 0 0 0 0 0 0 0 0 0 0 0 0 0 0 0 0 0 0 0
0 0 0 0 0 0 0 0 0 0 0 0 0 0 0 0 0 0 0 0 0 0 0 0 0 0 0 0 0 0 0 0 0 0 0 0 0 0 0 0 0 0 0
0 0 0 0 0 0 0 0 0 0 0 0 0 0 0 0 0 0 0 0 0 0 0 0 0 0 0 0 0 0 0 0 0 0 0 0 0 0 0 0 0 0 0
0 0 0 0 0 0 0 0 0 0 0 0 0 0 0 0 0 0 0 0 0 0 0 0 0 0 0 0 0 0 0 0 0 0 0 0 0 0 0 0 0 0 0
Wind_Speed
1 1 0 1 1 1 1 1 1 1 2 2 2 2 2 2 2 2 2 6 7 7 7 8 8 9 9 9 9 9 9 8 8 7 7 7 7 7 7 8 8 8 8
1 1 1 0 0 0 0 0 0 1 1 1 2 2 2 2 2 2 2 4 6 7 8 8 9 9 10 10 10 10 10 10 9 8 8 8 8 8 8 9 9 9 10
2 1 1 1 1 0 0 0 1 1 1 2 2 3 2 2 2 3 3 2 3 6 8 8 9 10 10 10 10 10 10 10 9 9 9 9 9 10 10 10 10 10 10
2 1 1 1 1 0 0 0 0 1 1 1 2 3 2 2 3 3 3 2 2 3 5 8 9 10 10 10 10 10 10 11 11 10 9 9 10 11 11 11 10 11 11
2 1 1 1 1 0 0 0 0 0 1 2 2 2 2 2 3 3 3 3 3 3 3 5 8 9 10 10 11 11 11 11 11 10 10 10 10 11 11 12 11 11 12
1 1 1 1 1 1 0 0 0 1 1 1 2 3 3 3 2 2 3 3 3 3 3 3 4 5 9 10 11 11 12 12 12 11 11 11 10 11 11 12 12 12 12
1 1 1 1 1 1 1 1 0 1 1 1 1 3 3 2 2 2 2 2 3 3 2 3 3 3 4 9 11 12 12 12 12 11 11 11 11 11 11 12 12 12 12
1 1 1 1 1 1 1 1 0 0 1 1 0 1 3 3 2 2 2 2 3 2 3 3 3 3 3 3 6 11 12 12 13 12 11 11 11 12 11 11 12 12 12
1 1 2 1 1 1 2 2 2 1 1 1 0 1 0 2 4 2 2 2 2 2 3 3 3 4 4 3 4 7 10 11 12 12 13 12 11 12 11 10 11 11 12
1 1 1 1 1 1 2 2 2 1 2 1 1 1 2 2 2 3 3 2 3 3 3 3 4 4 4 3 5 8 9 10 11 11 12 11 10 10 10 10 11 11 12
1 1 1 1 2 2 2 2 1 2 2 2 1 1 1 1 2 2 4 4 4 3 2 3 3 3 4 3 3 5 8 9 9 9 10 10 10 10 11 11 12 12 12
1 1 1 1 2 2 2 2 2 2 2 2 2 1 1 1 2 2 3 4 5 4 3 2 3 3 3 3 4 8 9 9 9 9 9 8 9 10 11 12 12 13 13
1 2 1 2 2 2 2 2 2 2 2 2 2 2 2 2 2 2 2 3 4 4 3 2 2 3 3 3 4 8 7 8 9 9 9 8 9 10 11 12 13 13 14
2 2 2 2 2 2 2 1 1 2 2 2 2 2 2 2 1 1 2 2 3 3 3 3 3 3 3 3 5 9 5 8 9 9 9 9 9 10 11 11 12 13 13
1 1 2 2 1 1 1 1 1 2 2 2 2 2 2 2 2 2 2 2 2 4 4 3 3 3 3 3 6 4 4 7 9 9 9 9 9 10 11 11 11 12 13
1 1 1 1 1 1 1 1 1 1 1 2 1 2 2 2 2 1 1 1 2 2 3 3 3 4 4 4 7 5 4 9 9 9 9 9 9 10 11 11 12 12 13
1 1 1 1 1 1 1 1 1 1 1 1 1 2 2 2 1 1 1 1 1 1 3 4 3 3 4 5 5 4 4 4 4 8 9 10 11 11 11 12 12 12 13
1 1 1 1 1 1 1 1 1 1 1 2 2 2 2 2 1 1 1 1 1 1 2 4 4 4 4 4 4 4 4 4 3 7 9 10 10 11 12 12 12 12 13
1 1 1 1 1 1 1 1 1 1 1 2 2 2 2 1 1 1 1 1 1 1 1 2 4 3 3 3 4 4 4 4 4 6 8 9 10 10 11 12 12 12 12
1 1 1 1 1 1 1 1 1 1 1 1 1 1 1 1 2 1 1 1 1 1 1 2 3 3 3 4 3 4 5 4 4 5 6 7 8 10 11 12 12 12 12
1 1 1 1 1 1 1 1 1 1 1 1 1 1 1 1 2 1 1 1 0 1 1 2 2 3 3 4 4 3 4 5 4 3 5 5 5 4 6 9 11 12 12
1 1 1 1 1 1 2 1 1 1 1 1 1 1 1 1 2 2 2 2 2 1 1 1 2 2 4 4 3 4 4 4 4 4 4 5 4 4 5 4 11 13 13
0 1 1 1 2 2 2 1 0 0 0 1 1 1 1 2 2 1 2 3 3 4 3 1 1 3 3 3 3 3 4 3 3 4 4 4 4 4 5 6 12 13 12
1 1 1 1 1 2 2 1 1 1 0 0 0 0 1 1 1 1 2 2 3 3 3 2 1 2 2 2 2 2 2 3 2 2 3 3 4 4 5 5 10 13 14
1 1 1 1 1 2 1 0 2 0 0 1 1 1 1 0 2 3 3 2 3 3 5 6 6 5 6 6 4 2 3 3 3 3 3 3 4 5 4 3 6 12 14
1 1 0 0 1 1 2 1 2 1 0 1 1 1 2 2 3 3 2 1 2 2 3 4 5 6 5 6 8 4 2 2 2 3 4 4 3 4 5 3 3 5 7
Wind_Direction
130 117 94 72 55 54 55 29 20 5 359 348 336 333 318 306 300 295 301 317 317 313 311 310 308 305 302 301 295 299 289 274 270 269 270 270 269 270 275 278 275 276 279
152 154 145 115 59 37 16 351 329 343 328 327 327 321 309 301 297 297 296 311 317 315 313 311 310 309 307 303 299 294 304 286 274 273 273 272 272 272 272 273 277 278 276
168 168 168 189 223 244 354 13 350 356 341 338 324 313 306 298 297 298 298 294 304 314 313 312 311 310 309 308 307 303 298 301 286 276 273 272 270 270 270 269 271 277 279
173 163 178 217 217 193 180 181 314 347 331 324 314 309 306 301 297 291 291 292 291 296 305 310 311 311 311 310 307 308 307 305 295 282 278 278 276 275 273 273 273 274 277
177 170 193 219 194 193 220 247 355 316 305 317 309 305 302 295 291 296 296 292 286 285 282 308 315 314 312 309 308 307 309 306 296 290 279 277 277 276 274 273 273 274 274
183 165 181 188 174 177 247 221 271 315 279 289 312 315 300 291 291 289 288 290 285 286 288 291 299 308 311 310 311 310 310 310 299 291 289 282 280 278 277 276 275 274 274
186 164 182 188 180 192 218 227 251 329 321 325 349 326 314 297 296 286 289 296 298 296 299 298 294 290 300 308 309 308 309 310 308 300 299 291 285 283 282 281 281 280 277
196 190 186 206 204 194 206 213 166 314 311 359 54 344 333 331 328 308 300 294 301 304 305 310 304 299 293 290 300 308 308 309 308 308 307 301 292 289 287 288 289 286 285
213 208 203 206 213 196 212 226 209 200 249 297 162 153 276 285 311 307 304 299 300 300 300 305 303 300 299 298 293 303 306 307 305 310 310 305 299 298 295 295 297 295 294
222 215 209 211 212 217 221 231 226 215 204 251 289 239 227 233 274 309 311 310 303 301 301 310 308 302 300 296 300 307 311 310 307 313 314 311 311 310 310 310 305 303 301
233 231 221 220 217 222 229 233 237 221 209 219 229 245 264 271 241 258 297 316 324 313 308 303 303 306 309 304 303 316 323 322 323 329 329 324 319 318 317 318 313 309 304
250 246 238 234 231 227 229 232 232 226 231 230 237 228 221 228 242 245 274 302 312 315 320 318 319 320 320 324 323 329 329 333 337 334 330 332 332 329 324 323 319 314 307
248 248 245 241 245 243 237 228 228 235 239 237 238 241 239 244 239 249 271 291 302 311 318 322 324 329 330 336 332 332 338 340 341 339 340 341 340 334 330 328 325 321 314
234 235 234 237 245 248 250 229 233 243 248 246 254 252 253 260 254 246 249 279 306 317 327 312 324 329 333 335 335 338 346 343 342 343 341 341 338 334 330 327 326 324 320
255 238 228 232 244 245 242 232 240 259 263 254 258 259 258 262 253 252 251 245 256 300 309 316 322 329 332 334 333 340 341 342 341 340 340 340 337 333 335 336 333 331 331
258 233 225 225 232 240 236 221 245 272 266 272 263 261 266 264 260 253 250 256 243 255 289 309 308 311 320 327 331 340 339 338 341 339 339 341 338 336 341 345 340 336 336
242 216 220 217 209 222 247 238 260 271 263 284 287 272 280 277 269 268 260 256 257 251 279 302 308 317 325 321 327 334 332 329 332 339 344 348 345 343 346 343 340 337 336
250 232 215 215 226 226 230 226 252 268 262 270 278 281 283 287 288 282 268 267 267 261 262 295 314 323 319 317 321 331 334 335 332 338 344 345 342 345 346 344 343 341 339
267 259 209 215 243 242 233 236 232 246 256 260 263 263 274 274 290 303 294 274 276 288 277 281 303 315 320 325 334 333 335 330 333 338 342 341 339 342 342 342 341 341 341
254 251 249 238 240 241 233 238 222 226 254 258 257 251 259 258 264 271 276 269 279 312 313 299 308 321 325 325 332 335 337 340 335 337 339 341 343 343 343 341 341 342 343
289 267 252 275 270 246 239 242 211 214 232 258 284 270 264 298 311 315 314 303 332 321 319 320 316 326 329 335 333 325 327 325 327 342 333 338 340 342 340 340 343 346 348
311 323 255 248 266 272 283 267 151 197 222 239 284 304 304 298 312 327 339 357 357 327 301 304 306 319 315 320 325 329 330 336 329 341 339 327 343 339 335 336 345 350 353
281 303 291 263 265 271 276 266 159 150 183 245 261 309 341 330 336 340 3 13 7 5 357 319 302 302 299 303 316 328 330 331 316 323 333 321 336 332 332 337 348 354 357
257 258 288 289 276 281 276 269 107 102 87 297 272 264 307 323 331 26 50 32 15 10 360 356 336 312 320 320 303 303 308 319 305 326 348 324 330 323 323 327 346 358 1
273 261 261 303 298 300 303 342 87 161 42 347 351 360 339 315 355 47 70 54 32 20 24 35 33 30 25 20 17 20 358 355 341 338 360 341 325 318 312 318 344 358 360
263 277 314 310 298 299 329 26 82 135 72 12 14 357 354 15 20 46 79 86 55 19 20 24 28 25 24 22 24 27 4 360 351 336 350 348 333 337 329 320 333 343 351